TimeCDT,TemperatureF,Dew PointF,Humidity,Sea Level PressureIn,VisibilityMPH,Wind Direction,Wind SpeedMPH,Gust SpeedMPH,PrecipitationIn,Events,Conditions,WindDirDegrees,DateUTC
12:54 AM,64.4,62.6,94,29.91,10.0,South,8.1,-,N/A,,Overcast,180,2012-10-24 05:54:00
1:54 AM,64.0,62.1,93,29.90,10.0,South,5.8,-,N/A,,Overcast,170,2012-10-24 06:54:00
2:54 AM,63.0,61.0,93,29.90,10.0,South,6.9,-,N/A,,Mostly Cloudy,170,2012-10-24 07:54:00
3:54 AM,63.0,60.1,90,29.89,10.0,South,8.1,-,N/A,,Mostly Cloudy,170,2012-10-24 08:54:00
4:54 AM,62.1,60.1,93,29.90,10.0,South,6.9,-,N/A,,Overcast,180,2012-10-24 09:54:00
5:33 AM,62.6,60.8,94,29.91,10.0,South,5.8,-,N/A,,Overcast,170,2012-10-24 10:33:00
5:54 AM,62.1,60.1,93,29.91,10.0,SSE,6.9,-,N/A,,Overcast,160,2012-10-24 10:54:00
6:54 AM,62.1,60.1,93,29.91,10.0,SSE,10.4,-,N/A,,Overcast,160,2012-10-24 11:54:00
7:12 AM,62.6,60.8,94,29.92,10.0,South,6.9,-,N/A,,Overcast,170,2012-10-24 12:12:00
7:54 AM,63.0,60.1,90,29.92,10.0,South,6.9,-,N/A,,Overcast,170,2012-10-24 12:54:00
8:49 AM,64.4,60.8,88,29.93,10.0,South,5.8,-,N/A,,Overcast,170,2012-10-24 13:49:00
8:54 AM,64.0,61.0,90,29.93,10.0,South,3.5,-,N/A,,Overcast,170,2012-10-24 13:54:00
9:54 AM,66.0,60.1,81,29.93,10.0,SSW,4.6,-,N/A,,Overcast,200,2012-10-24 14:54:00
10:54 AM,71.1,62.1,73,29.91,10.0,SSW,9.2,-,N/A,,Scattered Clouds,200,2012-10-24 15:54:00
11:54 AM,73.0,63.0,71,29.90,10.0,South,10.4,-,N/A,,Scattered Clouds,170,2012-10-24 16:54:00
12:43 PM,71.6,64.4,78,29.89,10.0,South,12.7,-,N/A,,Overcast,180,2012-10-24 17:43:00
12:54 PM,73.9,64.0,71,29.88,10.0,South,12.7,-,N/A,,Mostly Cloudy,180,2012-10-24 17:54:00
1:01 PM,75.2,64.4,69,29.88,10.0,South,11.5,-,N/A,,Mostly Cloudy,170,2012-10-24 18:01:00
1:54 PM,75.0,64.9,71,29.85,10.0,South,13.8,-,N/A,,Mostly Cloudy,170,2012-10-24 18:54:00
2:54 PM,75.9,64.9,69,29.83,10.0,South,15.0,-,N/A,,Overcast,170,2012-10-24 19:54:00
3:54 PM,78.1,66.0,66,29.81,10.0,South,20.7,26.5,N/A,,Mostly Cloudy,170,2012-10-24 20:54:00
4:54 PM,77.0,66.0,69,29.81,10.0,South,17.3,25.3,N/A,,Mostly Cloudy,190,2012-10-24 21:54:00
5:54 PM,73.9,64.9,73,29.81,10.0,South,13.8,-,N/A,,Mostly Cloudy,170,2012-10-24 22:54:00
6:54 PM,72.0,64.9,78,29.82,10.0,South,15.0,-,N/A,,Overcast,170,2012-10-24 23:54:00
7:54 PM,72.0,64.9,78,29.82,10.0,South,17.3,-,N/A,,Overcast,170,2012-10-25 00:54:00
8:54 PM,70.0,64.9,84,29.82,10.0,South,15.0,-,N/A,,Scattered Clouds,170,2012-10-25 01:54:00
9:54 PM,69.1,64.0,84,29.82,10.0,South,12.7,-,N/A,,Mostly Cloudy,180,2012-10-25 02:54:00
10:54 PM,68.0,63.0,84,29.82,10.0,South,13.8,-,N/A,,Mostly Cloudy,180,2012-10-25 03:54:00
11:54 PM,66.9,63.0,87,29.80,10.0,South,16.1,-,N/A,,Overcast,170,2012-10-25 04:54:00